Location: Unspecified
(0.0000°N, 0.0000°E)
Time: 09:34:11
(UTC+00:00)

deb Explorer IX - Pass Details

Date: 15 December 2018
Orbit: 538 x 1115 km, 38.8° (Epoch: 17 January)

Event Time Altitude Azimuth Distance (km) Brightness Sun altitude
Rises 15:55:05 0° 258° (WSW) 3,327 ? 27.4°
Reaches altitude 10° 15:58:38 10° 279° (W) 2,262 ? 26.6°
Maximum altitude 16:01:52 16° 317° (NW) 1,751 ? 25.8°
Drops below altitude 10° 16:04:50 10° 356° (N) 2,039 ? 25.2°
Sets 16:07:49 0° 18° (NNE) 2,850 ? 24.5°
